User: anonymous   Login
Location: Arroyo Retuerta
(40.5469°N, 4.3534°W)
Time: 13:43:36
(UTC+00:00)
Language:

OE (NEXTSAT) - Orbit

View from above orbital plane
View from above orbital plane
View from above satellite
View from above satellite

Ground track
Ground track

The orbit data is extracted from the following two-line orbital elements,

1 30774U 07006C   20218.86735410 +.00001942 +00000-0 +50211-4 0  9990
2 30774 046.0012 166.7790 0005974 207.3623 152.6968 15.43732422748470
Epoch (UTC): 05 August 2020 20:48:59
Eccentricity: 0.0005974
inclination: 46.0012°
perigee height: 431 km
apogee height: 439 km
right ascension of ascending node: 166.7790°
argument of perigee: 207.3623°
revolutions per day: 15.43732422
mean anomaly at epoch: 152.6968°
orbit number at epoch: 74847

The dashed part of the orbit path shows where the satellite is in the earth's shadow,  

DLR